Regional Weather Roundup
Issued by NWS

Home | Current Version | Previous Version | Text Only | Print | Product List | Glossary On
Versions: 1 2 3 4 5 6 7 8 9 10 11 12 13 14 15 16 17 18 19 20 21 22 23 24 25 26 27 28 29 30 31 32 33 34 35 36 37 38 39 40 41 42 43 44 45 46 47 48 49 50
000
ASUS43 KBIS 050220
RWRND

NORTH DAKOTA REGIONAL WEATHER ROUNDUP
NATIONAL WEATHER SERVICE BISMARCK ND
800 PM CST WED MAR 04 2015

NOTE: "FAIR" INDICATES FEW OR NO CLOUDS BELOW 12,000 FEET WITH NO
SIGNIFICANT WEATHER AND/OR OBSTRUCTIONS TO VISIBILITY.


NDZ001>003-009>011-017-050300-
NORTHWEST NORTH DAKOTA

CITY           SKY/WX    TMP DP  RH WIND       PRES   REMARKS
WILLISTON        N/A    N/A N/A N/A MISG      30.25F
MINOT          CLEAR     -5 -15  62 SW3       30.30F
MINOT AFB      CLEAR     -8 -14  76 CALM      30.30F
$$

NDZ018>021-031>035-040>046-050300-
SOUTHWEST NORTH DAKOTA

CITY           SKY/WX    TMP DP  RH WIND       PRES   REMARKS
BISMARCK       CLEAR      2 -10  57 NE5       30.35S WCI  -8
DICKINSON      CLEAR      0 -10  63 S5        30.19S WCI -10
GARRISON         N/A     -6 -13  71 CALM      30.30S
HETTINGER ARPT CLEAR      1 -10  60 CALM      30.22S
$$

NDZ004>008-012>016-024-026-027-054-050300-
NORTHEAST NORTH DAKOTA

CITY           SKY/WX    TMP DP  RH WIND       PRES   REMARKS
GRAND FORKS    CLEAR     -6 -13  71 NW5       30.38S WCI -17
GRND FRKS AFB  CLEAR     -6 -14  68 NW7       30.37S WCI -21
DEVILS LAKE    CLEAR     -8 -18  59 W8        30.32F WCI -23
$$

NDZ022-023-025-028>030-036>039-047>053-050300-
SOUTHEAST NORTH DAKOTA

CITY           SKY/WX    TMP DP  RH WIND       PRES   REMARKS
FARGO          FAIR       0  -9  65 W9        30.40R WCI -15
JAMESTOWN      CLEAR     -5 -13  68 W6        30.35R WCI -18
$$




USA.gov is the U.S. government's official web portal to all federal, state and local government web resources and services.